This is the latest recevied weather packets stored in our database for station/object OE3BCB-14. If no packets are shown the sender has not sent any weather packets the latest 1 day(s).
| Time | Temp. | Humidity | Pressure | Rain* | Wind** | Luminosity | Snow |
|---|---|---|---|---|---|---|---|
| 1777965191 | 20.56° C | 45% | 1011.2 hPa | - | 0 m/s | 29 W/m² | - |
| 1777964888 | 20.56° C | 45% | 1011.3 hPa | - | 0 m/s | 29 W/m² | - |
| 1777964586 | 20.56° C | 46% | 1011.3 hPa | - | 0 m/s | 30 W/m² | - |
| 1777964283 | 20.56° C | 46% | 1011.3 hPa | - | 0 m/s | 30 W/m² | - |
| 1777963981 | 20.56° C | 46% | 1011.4 hPa | - | 0 m/s | 32 W/m² | - |
| 1777963679 | 20.56° C | 46% | 1011.4 hPa | - | 0.45 m/s, 45° | 34 W/m² | - |
| 1777963376 | 20.56° C | 46% | 1011.4 hPa | - | 0 m/s | 36 W/m² | - |
| 1777963074 | 21.11° C | 45% | 1011.4 hPa | - | 0.45 m/s, 45° | 95 W/m² | - |
| 1777962771 | 21.67° C | 47% | 1011.4 hPa | - | 0 m/s | 136 W/m² | - |
| 1777962469 | 21.11° C | 47% | 1011.4 hPa | - | 0 m/s | 141 W/m² | - |
| 1777962167 | 21.11° C | 47% | 1011.4 hPa | - | 0 m/s | 90 W/m² | - |
| 1777961864 | 20.56° C | 48% | 1011.4 hPa | - | 0 m/s | 161 W/m² | - |
| 1777961562 | 20° C | 49% | 1011.4 hPa | - | 0 m/s | 149 W/m² | - |
| 1777961259 | 19.44° C | 49% | 1011.4 hPa | - | 0 m/s | 112 W/m² | - |
| 1777960957 | 19.44° C | 49% | 1011.4 hPa | - | 0 m/s | 135 W/m² | - |
| 1777960654 | 18.89° C | 50% | 1011.4 hPa | - | 0 m/s | 137 W/m² | - |
| 1777960352 | 17.78° C | 50% | 1011.4 hPa | - | 0 m/s | 128 W/m² | - |
| 1777960050 | 17.78° C | 50% | 1011.3 hPa | - | 0 m/s | 106 W/m² | - |
| 1777959747 | 17.22° C | 50% | 1011.4 hPa | - | 0 m/s | 79 W/m² | - |
| 1777959450 | 16.67° C | 50% | 1011.4 hPa | - | 0 m/s | 43 W/m² | - |
| 1777959142 | 16.67° C | 50% | 1011.4 hPa | - | 0 m/s | 40 W/m² | - |
| 1777958840 | 16.11° C | 51% | 1011.3 hPa | - | 0 m/s | 40 W/m² | - |
| 1777958235 | 15° C | 50% | 1011.3 hPa | - | 0 m/s | 33 W/m² | - |
| 1777957933 | 15° C | 50% | 1011.3 hPa | - | 0 m/s | 29 W/m² | - |
| 1777957630 | 14.44° C | 50% | 1011.3 hPa | - | 0 m/s | 27 W/m² | - |
* Rain since midnight (hover to see other rain measurements)
** Current wind speed in m/s (hover to see current wind gust speed)